#timestamp,LO_Frequency,Hit,StdDev 
1513328415.2,286047014.8,N
1513328435.0,286047012.6,N
1513328435.9,286047012.6,N
1513328455.8,286047014.6,N
1513328475.6,286047016.3,Y
1513328495.4,286046998.6,P
1513328515.3,286047000.3,N
1513328535.1,286047002.2,N
1513328536.0,286047002.2,N
1513328555.8,286047000.1,N
1513328575.7,286047000.1,N
1513328595.5,286047000.0,N
1513328615.3,286047000.3,N
1513328635.1,286047002.4,N
1513328655.9,286046998.5,N
1513328675.7,286046998.1,N
1513328695.5,286047000.9,N
1513328715.4,286047001.9,N
1513328735.2,286047004.0,N
1513328755.0,286047002.1,N
1513328755.9,286047002.1,N
1513328775.8,286047002.6,N
1513328795.6,286046997.2,N
1513328815.4,286046990.9,N
1513328835.3,286046988.8,N
1513328855.1,286046993.2,N
1513328856.0,286046993.2,N
1513328875.8,286046992.0,N
1513328895.7,286046992.3,N
1513328915.5,286046995.9,N
1513328935.3,286046997.0,N
1513328955.1,286046998.5,N
1513328975.9,286046999.3,N
1513328995.7,286046998.9,N
1513329015.5,286046998.0,N
1513329035.4,286046997.5,N
1513329055.2,286046996.4,N
1513329075.0,286046995.3,N
1513329075.9,286046995.3,N
1513329095.8,286046992.1,N
1513329115.6,286046990.9,N
1513329135.4,286046989.2,N
1513329155.3,286046989.3,N
1513329175.1,286046985.5,Y
1513329176.0,286046985.5,P
1513329195.8,286046988.4,N
1513329215.7,286046988.2,N
1513329235.5,286046988.1,N
1513329255.3,286046987.8,Y
1513329275.2,286046997.0,P
1513329295.9,286046993.9,N
1513329315.7,286047001.2,N
1513329335.6,286046998.7,N
1513329355.4,286046998.9,N
1513329375.2,286046998.0,N
1513329395.0,286046999.4,N
1513329396.0,286046999.4,N
1513329415.8,286046995.2,N
1513329435.6,286047001.4,N
1513329455.4,286047005.0,N
1513329475.3,286047009.0,N
1513329495.1,286047011.7,N
1513329515.8,286047013.2,N
1513329535.7,286047013.6,N
1513329555.5,286047015.6,N
1513329575.3,286047014.7,N
1513329595.2,286047012.0,N
1513329615.9,286047009.0,N
1513329635.7,286047005.5,N
1513329655.6,286047004.9,N
1513329675.4,286047006.7,N
1513329695.2,286047011.8,N
1513329715.0,286047015.1,N
1513329715.9,286047015.1,N
1513329735.8,286047009.7,N
1513329755.6,286047008.4,N
1513329775.4,286047008.8,N
1513329795.3,286047008.3,N
1513329815.1,286047011.5,N
1513329835.8,286047013.2,N
1513329855.7,286047015.1,N
1513329875.5,286047016.9,N
1513329895.3,286047013.7,N
1513329915.2,286047011.9,N
1513329935.9,286047012.2,N
1513329955.7,286047006.4,N
1513329975.6,286047003.2,N
1513329995.4,286047005.8,N
1513330015.2,286047007.9,N
1513330035.1,286047013.1,Y
1513330036.0,286047013.1,P
1513330055.8,286047003.1,N
1513330075.6,286047004.5,N
1513330095.5,286047006.7,N
1513330115.3,286047008.3,N
1513330135.1,286047007.0,N
1513330155.8,286047004.5,N
1513330175.7,286047009.1,N
1513330195.5,286047007.4,N
1513330215.4,286047030.2,Y
1513330235.2,286047014.1,P
1513330255.0,286047009.5,N
1513330255.9,286047009.5,P
1513330275.7,286047006.2,N
1513330295.6,286047006.1,N
1513330315.4,286047005.4,N
1513330335.2,286047003.6,N
1513330355.1,286047006.3,N
1513330356.0,286047006.3,N
1513330375.8,286047010.3,Y
1513330395.6,286047050.5,P
1513330415.5,286047027.2,N
1513330435.3,286047018.3,N
1513330455.1,286047012.9,N
1513330475.9,286047012.1,N
1513330495.7,286047015.2,N
1513330515.5,286047011.7,N
1513330535.4,286047010.7,N
1513330555.2,286047008.3,N
1513330575.0,286047004.6,N
1513330575.9,286047004.6,N
1513330595.8,286047006.6,N
1513330615.6,286047007.1,N
1513330635.4,286047007.6,N
1513330655.2,286047005.0,N
1513330675.1,286047005.8,N
1513330676.0,286047005.8,N
1513330695.8,286047008.6,N
1513330715.6,286047004.8,N
1513330735.5,286047006.3,N
1513330755.3,286047007.8,N
1513330775.1,286047011.9,N
1513330795.9,286047006.6,N
1513330815.7,286047006.5,N
1513330835.5,286047006.2,N
1513330855.4,286047006.2,N
1513330875.2,286047010.6,N
1513330895.0,286047008.2,N
1513330895.9,286047008.2,N
1513330915.8,286047007.2,N
1513330935.6,286047010.5,N
1513330955.4,286047009.6,N
1513330975.3,286047009.3,N
1513330995.1,286047011.5,Y
1513330996.0,286047011.5,P
1513331015.8,286047008.9,P
1513331035.7,286047006.2,P
1513331055.5,286047003.0,N
1513331075.3,286047005.3,N
1513331095.1,286047008.2,N
1513331115.9,286047011.7,Y
1513331135.7,286047004.9,P
1513331155.5,286047005.5,P
1513331175.4,286047000.0,N
1513331195.2,286047000.3,N
1513331215.0,286047000.3,N
1513331215.9,286047000.3,N
1513331235.8,286046997.2,N
1513331255.6,286046998.7,N
1513331275.4,286046999.4,N
1513331295.3,286046991.9,N
1513331315.1,286046992.7,N
1513331316.0,286046992.7,N
1513331335.8,286046993.6,N
1513331355.7,286046992.4,N
1513331375.5,286046997.6,N
1513331395.3,286047000.9,N
1513331415.2,286046998.7,N
1513331435.9,286046998.0,N
1513331455.7,286046997.9,N
1513331475.5,286046990.6,N
1513331495.4,286046992.5,N
1513331515.2,286046987.2,N
1513331535.0,286046986.3,N
1513331535.9,286046986.3,N
1513331555.8,286046984.2,N
1513331575.6,286046987.1,N
1513331595.4,286046991.3,N
1513331615.3,286046993.0,N
1513331635.1,286046993.6,N
1513331636.0,286046993.6,N
1513331655.8,286046993.4,N
1513331675.7,286046992.8,N
1513331695.5,286046988.6,N
1513331715.3,286046991.8,N
1513331735.2,286046992.1,N
1513331755.9,286046994.5,N
1513331775.7,286046989.2,N
1513331795.5,286046989.1,N
1513331815.4,286046992.6,N
1513331835.2,286046993.2,N
1513331855.0,286046992.3,N
1513331855.9,286046992.3,N
1513331875.8,286046991.7,N
1513331895.6,286046993.4,N
1513331915.4,286046994.3,N
1513331935.3,286046994.8,N
1513331955.1,286046994.8,N
1513331956.0,286046994.8,N
1513331975.8,286046992.7,N
1513331995.7,286046997.5,N
